Home > Time Zones > World Clock > Weather > Iran > Ahvaz > Past weeks

Flag for Iran Weather past 2 weeks in Ahvaz, Iran

Now
86 °F

Sunny.


Feels Like: 83 °F
Forecast: 78 / 98 °F
Wind: 5 mph from North

Location: Ahwaz

Current Time: Apr 27, 2015 at 11:57:59 AM

Latest Report: Apr 27, 2015 at 11:30 AM


Visibility: 10 mi

Pressure: 29.95 "Hg

Humidity: 17%

Dew point: 36 °F

Location of AhvazLocation

Historic Weather in Ahvaz — Graph

°F

Ahvaz temperature yesterday

Maximum temperature yesterday: 93 °F (at 4:00 PM)
Minimum temperature yesterday: 59 °F (at 6:30 AM)
Average temperature yesterday: 79 °F

Past Weeks' High & Low Weather Summary

 TemperatureHumidityPressure
High100 °F (Apr 23, 2:00 PM)78% (Apr 17, 2:30 AM)30.09 "Hg (Apr 17, 2:30 AM)
Low59 °F (Apr 14, 5:30 AM)9% (Apr 26, 2:00 PM)29.68 "Hg (Apr 22, 5:00 PM)
Average80 °F32%29.91 "Hg
* Reported Apr 12 10:30 AM — Apr 27 10:30 AM, Ahvaz, Weather by CustomWeather, © 2015

Note: Actual official high and low records may vary slightly from our data, if they occured in-between our weather recording intervals... More about our weather records

Advertising

Ahvaz weather history for previous 24 hours

 ConditionsComfort  
Time TempWeatherWind HumidityBarometerVisibility
10:30 AM
Mon, Apr 27
81 °FSunny.5 mph20%29.95 "Hg10 mi
10:00 AM79 °FSunny.5 mph24%29.95 "Hg10 mi
9:30 AM75 °FSunny.5 mph27%29.92 "Hg10 mi
9:00 AM73 °FSunny.5 mph19%29.92 "Hg10 mi
8:30 AM73 °FSunny.5 mph22%29.92 "Hg10 mi
8:00 AM72 °FClear.5 mph27%29.92 "Hg10 mi
7:30 AM70 °FClear.5 mph31%29.89 "Hg10 mi
6:30 AM72 °FClear.7 mph31%29.89 "Hg10 mi
5:30 AM72 °FClear.5 mph31%29.89 "Hg10 mi
4:30 AM70 °FClear.2 mph35%29.89 "Hg10 mi
3:30 AM72 °FClear.5 mph25%29.89 "Hg10 mi
1:30 AM77 °FClear.9 mph21%29.89 "Hg10 mi
1:00 AM77 °FClear.9 mph28%29.89 "Hg10 mi
12:30 AM79 °FClear.7 mph26%29.89 "Hg10 mi
12:00 AM79 °FClear.7 mph26%29.89 "Hg10 mi
11:30 PM
Sun, Apr 26
79 °FClear.7 mph26%29.89 "Hg10 mi
11:00 PM79 °FClear.7 mph26%29.89 "Hg10 mi
10:30 PM79 °FClear.5 mph26%29.89 "Hg10 mi
10:00 PM81 °FClear.5 mph21%29.89 "Hg10 mi
9:30 PM82 °FClear.5 mph20%29.89 "Hg10 mi
9:00 PM84 °FSunny.7 mph20%29.89 "Hg10 mi
8:30 PM86 °FSunny.5 mph19%29.86 "Hg10 mi
8:00 PM86 °FSunny.7 mph18%29.86 "Hg10 mi
7:30 PM88 °FSunny.5 mph17%29.86 "Hg10 mi
7:00 PM90 °FSunny.9 mph14%29.86 "Hg10 mi
6:30 PM91 °FSunny.7 mph13%29.86 "Hg10 mi
6:00 PM93 °FSunny.5 mph12%29.86 "Hg10 mi
5:30 PM93 °FSunny.7 mph12%29.86 "Hg10 mi
5:00 PM93 °FSunny.5 mph12%29.86 "Hg10 mi
4:30 PM93 °FSunny.12 mph12%29.86 "Hg10 mi
4:00 PM93 °FSunny.7 mph14%29.89 "Hg10 mi
3:30 PM91 °FSunny.12 mph15%29.89 "Hg10 mi
3:00 PM91 °FSunny.7 mph15%29.89 "Hg10 mi
2:30 PM91 °FSunny.7 mph15%29.92 "Hg10 mi
2:00 PM90 °FSunny.9 mph9%29.92 "Hg10 mi
1:30 PM88 °FSunny.7 mph16%29.95 "Hg10 mi
1:00 PM88 °FSunny.9 mph16%29.95 "Hg10 mi
12:30 PM84 °FSunny.7 mph20%29.95 "Hg10 mi
11:30 AM81 °FSunny.7 mph21%29.98 "Hg10 mi
11:00 AM77 °FSunny.7 mph22%29.98 "Hg10 mi
Weather by CustomWeather, © 2015

See weather overviewHow to use our weather pages